Regional Weather Roundup
Issued by NWS

Home | Current Version | Previous Version | Graphics & Text | Print | Product List | Glossary On
Versions: 1 2 3 4 5 6 7 8 9 10 11 12 13 14 15 16 17 18 19 20 21 22 23 24 25 26 27 28 29 30 31 32 33 34 35 36 37 38 39 40 41 42 43 44 45 46 47 48 49 50
000
ASUS43 KDTX 292110
RWRMI
MICHIGAN HOURLY REGIONAL WEATHER ROUNDUP
NATIONAL WEATHER SERVICE DETROIT/PONTIAC MI
500 PM EDT FRI JUL 29 2016

NOTE: "FAIR" INDICATES FEW OR NO CLOUDS BELOW 12,000 FEET WITH NO
SIGNIFICANT WEATHER AND/OR OBSTRUCTION TO VISIBILITY.

MIZ047>049-052>055-059>063-066>070-074>076-081>083-292200-
SOUTHEAST LOWER MICHIGAN

CITY           SKY/WX    TMP DP  RH WIND       PRES   REMARKS
ADRIAN         CLOUDY    80  68  66 E18G25    29.93S
ALMA           MOSUNNY   73  66  78 NE12      29.99F
ANN ARBOR      PTSUNNY   77  67  71 NE10G18   29.94R
BAD AXE        CLOUDY    73  57  57 NE15      30.02F
CARO           CLOUDY    73  57  56 NE10      30.00S
DETROIT CITY   CLOUDY    75  65  70 E9        29.95S
DETROIT        CLOUDY    76  66  71 NE13      29.94F
FLINT          SUNNY     84  57  39 NE18G25   29.97F
GROSSE ILE     CLOUDY    76  68  77 NE13      29.93S
HILLSDALE      CLOUDY    79  68  68 NE7       29.94F
HOWELL         MOSUNNY   80  58  47 NE10G18   29.95S

CITY           SKY/WX    TMP DP  RH WIND       PRES   REMARKS
JACKSON        CLOUDY    79  66  64 NE10      29.94S
LAMBERTVILLE   CLOUDY    74  70  89 NE5       29.95R
LANSING        MOSUNNY   77  58  51 NE17      29.96F
LAPEER         FAIR      77  53  42 E10       29.99F
MASON          MOSUNNY   77  62  59 NE10G18   29.95F
MONROE         LGT RAIN  74  69  85 NE10      29.93R
MT. CLEMENS    PTSUNNY   79  64  60 NE12      29.93F
PONTIAC        CLOUDY    81  61  50 E10G21    29.95S
PORT HOPE        N/A     71  60  68 NE15      30.02S
PORT HURON     PTSUNNY   77  61  57 N9G17     29.97F
TRI CITIES     PTSUNNY   72  61  68 NE18      30.01S
MIDLAND        FAIR      74  58  56 E14       30.01S
TROY           CLOUDY    81  61  50 S7        29.99R
SAGINAW HB     CLOUDY    72  61  68 N12       30.00R
$$
MIZ043>046-050>051-056>058-064>065-071>073-077>080-292200-
SOUTHWEST LOWER MICHIGAN

CITY           SKY/WX    TMP DP  RH WIND       PRES   REMARKS
BATTLE CREEK   CLOUDY    74  66  76 NE13      29.96R
BENTON HARBOR  CLOUDY    77  66  68 E9        29.92R
BIG RAPIDS     PTSUNNY   76  59  56 E12       30.00R
COLDWATER      CLOUDY    76  69  81 NE6       29.95R
FREMONT        FAIR      77  68  72 E12G17    29.98S
HOLLAND        MOSUNNY   77  63  61 E10G21    29.95R
GRAND RAPIDS   PTSUNNY   75  63  66 E15       29.98S
IONIA          PTSUNNY   73  62  69 NE12      29.98R
KALAMAZOO      CLOUDY    76  65  68 NE7       29.95R
LUDINGTON      MOSUNNY   78  61  57 E13       29.96F
MARSHALL       CLOUDY    77  66  70 NE3       29.94S
MOUNT PLEASANT CLOUDY    76  57  51 NE10      29.99F
MUSKEGON       CLOUDY    77  63  61 E14       29.97R
SOUTH HAVEN    CLOUDY    77  67  72 E6        29.93R
$$
MIZ016>042-292200-
NORTHERN LOWER MICHIGAN

CITY           SKY/WX    TMP DP  RH WIND       PRES   REMARKS
ALPENA         SUNNY     76  50  40 NE6       30.06F
BEAVER ISLAND  SUNNY     76  51  41 E12       30.06F
BELLAIRE       MOSUNNY   82  51  34 NE9       30.00F
CADILLAC       CLOUDY    76  57  53 E10       30.01F
CHARLEVOIX     SUNNY     78  51  39 N13       30.06F
FRANKFORT      PTSUNNY   78  61  54 NE9       29.99F
GAYLORD        PTSUNNY   77  50  38 NE9       30.04F
GRAYLING       SUNNY     81  52  36 N9        30.02F
HARBOR SPRINGS SUNNY     77  51  40 NE9G17    30.04F
HOUGHTON LAKE  CLOUDY    76  56  49 E7        30.02F
MANISTEE       MOSUNNY   79  60  52 E10       29.98F
OSCODA         MOSUNNY   73  54  51 E13       30.05S
PELLSTON       SUNNY     77  50  38 E9G18     30.06F
ROGERS CITY    SUNNY     71  51  48 N5        30.07F
TRAVERSE CITY  MOSUNNY   80  59  48 N10       29.98F
$$
MIZ007>008-015-292200-
EASTERN UPPER MICHIGAN

CITY           SKY/WX    TMP DP  RH WIND       PRES   REMARKS
KINROSS        PTSUNNY   75  51  43 VRB5      30.06F
MACKINAC ISLAN SUNNY     74  49  41 E5        30.06F
NEWBERRY       SUNNY     79  45  29 NW5       30.06F
S. S. MARIE    SUNNY     77  57  50 NW10      30.06S
MUNISING         N/A     72  59  63 NE15      30.07F
$$
MIZ004>006-011>014-085-292200-
CENTRAL UPPER MICHIGAN

CITY           SKY/WX    TMP DP  RH WIND       PRES   REMARKS
MANISTIQUE     SUNNY     75  58  55 SE7       30.06S
ESCANABA       SUNNY     73  55  53 SE9       30.04F
MENOMINEE      SUNNY    N/A N/A N/A NE13      30.04F
SAWYER-GWINN   SUNNY     73  48  40 NE15      30.09S
$$
MIZ001>003-009>011-084-292200-
WESTERN UPPER MICHIGAN

CITY           SKY/WX    TMP DP  RH WIND       PRES   REMARKS
IRON MOUNTAIN  PTSUNNY   77  51  40 NE6       30.04F
HOUGHTON       SUNNY     72  53  51 E12       30.09F
COPPER HARBOR    N/A     74  48  39 VRB7      30.08F
IRONWOOD       SUNNY     72  57  60 N9        30.05F
$$

ABBREVIATIONS USED IN REMARKS
   TC - TEMPERATURE IN CELSIUS
  WCI - WIND CHILL INDEX
   HX - HEAT INDEX
  VSB - VISIBILITY





USA.gov is the U.S. government's official web portal to all federal, state and local government web resources and services.